Date String (YYYY-MM-DD hh:mm:ss) UTC,Instrument flags,Ambient pressure (hPa),Sample flow (lpm),Bypass flow (lpm),Sample temperature (°C),Ambient temperature (°C),ASC tube jacket temperature (°C),LED temperature (°C),Box temperature (°C),Sample RH (%),Span deviation,Mass concentration (μg/m³),Mass concentration (μg/m³),Mass concentration (μg/m³)
DateTimeUTC,F1_M11,P_M11,Q1_M11,Q2_M11,T1_M11,T2_M11,T3_M11,T4_M11,T5_M11,U1_M11,ZSPAN_M11,X0_M11,X2_M11,X1_M11
2021-11-19 00:00:00,,0827.7,4.99,0.00,25.1,24.2,00.0,34.1,26.8,07.2,0004.6,0023.51,0006.88,0005.27
2021-11-19 00:01:00,,0827.7,5.01,0.00,25.0,24.2,00.0,34.1,26.8,07.3,0003.5,0024.83,0006.88,0005.32
2021-11-19 00:02:00,,0827.7,4.98,0.00,25.0,24.2,00.0,34.1,26.8,07.6,0000.8,0024.21,0006.93,0005.37
2021-11-19 00:03:00,,0827.7,5.01,0.00,25.0,24.2,00.0,34.1,26.8,07.9,0000.0,0023.90,0006.96,0005.40
2021-11-19 00:04:00,,0827.7,5.00,0.00,25.0,24.2,00.0,34.1,26.8,08.0,0000.0,0023.34,0007.00,0005.43
2021-11-19 00:05:00,,0827.7,4.99,0.00,25.0,24.1,00.0,34.1,26.8,08.0,0000.0,0022.53,0007.01,0005.47
2021-11-19 00:06:00,,0827.7,5.01,0.00,25.0,24.1,00.0,34.1,26.7,08.0,0000.0,0022.28,0007.02,0005.48
2021-11-19 00:07:00,,0827.6,5.01,0.00,25.0,24.1,00.0,34.1,26.7,08.0,0000.0,0021.52,0007.03,0005.49
2021-11-19 00:08:00,,0827.6,5.01,0.00,25.0,24.1,00.0,34.0,26.7,07.9,0000.0,0022.15,0006.99,0005.49
2021-11-19 00:09:00,,0827.7,4.99,0.00,24.9,24.1,00.0,34.0,26.7,07.7,0000.0,0023.95,0007.01,0005.48
2021-11-19 00:10:00,,0827.7,5.00,0.00,24.9,24.1,00.0,34.0,26.7,07.7,0000.0,0024.55,0007.01,0005.46
2021-11-19 00:11:00,,0827.7,5.00,0.00,24.9,24.1,00.0,34.0,26.7,07.5,0000.0,0022.40,0006.97,0005.45
2021-11-19 00:12:00,,0827.7,5.00,0.00,24.9,24.0,00.0,34.0,26.7,07.3,0000.0,0022.82,0006.97,0005.43
2021-11-19 00:13:00,,0827.7,5.00,0.00,24.9,24.0,00.0,34.0,26.6,07.2,0000.0,0023.37,0006.93,0005.41
2021-11-19 00:14:00,,0827.7,5.00,0.00,24.9,24.0,00.0,34.0,26.6,07.3,0000.0,0024.04,0006.84,0005.38
2021-11-19 00:15:00,,0827.7,5.01,0.00,24.9,24.0,00.0,34.0,26.6,07.4,0000.0,0025.06,0006.79,0005.37
2021-11-19 00:16:00,,0827.6,5.00,0.00,24.8,24.0,00.0,34.0,26.6,07.3,0000.0,0024.89,0006.76,0005.36
2021-11-19 00:17:00,,0827.5,4.99,0.00,24.8,24.0,00.0,33.9,26.6,07.2,0000.0,0025.02,0006.70,0005.34
2021-11-19 00:18:00,,0827.5,5.01,0.00,24.8,24.0,00.0,33.9,26.6,07.3,0000.0,0025.26,0006.67,0005.32
2021-11-19 00:19:00,,0827.5,5.00,0.00,24.8,24.0,00.0,33.9,26.6,07.4,0000.0,0026.21,0006.67,0005.30
2021-11-19 00:20:00,,0827.6,5.00,0.00,24.8,24.0,00.0,33.9,26.6,07.4,0000.0,0025.09,0006.67,0005.29
2021-11-19 00:21:00,,0827.7,5.00,0.00,24.8,24.0,00.0,33.9,26.6,07.7,0000.0,0023.27,0006.68,0005.27
2021-11-19 00:22:00,,0827.9,5.00,0.00,24.8,24.0,00.0,33.9,26.6,08.0,0000.0,0023.78,0006.67,0005.23
2021-11-19 00:23:00,,0827.9,4.99,0.00,24.8,24.0,00.0,33.9,26.6,08.0,0000.0,0022.60,0006.64,0005.19
2021-11-19 00:24:00,,0827.7,4.99,0.00,24.8,23.9,00.0,33.9,26.5,07.4,0000.0,0022.20,0006.65,0005.18
2021-11-19 00:25:00,,0827.7,5.02,0.00,24.8,23.9,00.0,33.8,26.5,07.2,0000.0,0021.71,0006.74,0005.18
2021-11-19 00:26:00,,0827.7,5.00,0.00,24.8,23.9,00.0,33.8,26.5,07.1,0000.0,0020.91,0006.82,0005.18
2021-11-19 00:27:00,,0827.7,4.99,0.00,24.7,23.9,00.0,33.8,26.5,06.8,0000.0,0021.91,0006.91,0005.21
2021-11-19 00:28:00,,0827.7,5.01,0.00,24.7,23.9,00.0,33.8,26.5,06.7,0000.0,0021.61,0006.98,0005.23
2021-11-19 00:29:00,,0827.7,5.00,0.00,24.7,23.9,00.0,33.8,26.6,06.9,0000.0,0022.23,0007.02,0005.26
2021-11-19 00:30:00,,0827.7,5.00,0.00,24.8,23.9,00.0,33.8,26.6,07.1,0000.0,0020.53,0007.03,0005.29
2021-11-19 00:31:00,,0827.8,5.01,0.00,24.7,23.9,00.0,33.8,26.5,07.0,0003.0,0020.29,0007.06,0005.33
2021-11-19 00:32:00,,0827.9,4.99,0.00,24.7,23.9,00.0,33.8,26.5,07.1,0003.1,0020.39,0007.06,0005.37
2021-11-19 00:33:00,,0827.8,5.02,0.00,24.7,23.9,00.0,33.8,26.5,07.5,0003.1,0019.83,0007.08,0005.43
2021-11-19 00:34:00,,0827.7,4.98,0.00,24.7,23.9,00.0,33.8,26.5,07.5,0002.7,0019.49,0007.13,0005.47
2021-11-19 00:35:00,,0827.5,5.01,0.00,24.7,23.9,00.0,33.8,26.5,07.1,0002.9,0019.35,0007.15,0005.50
2021-11-19 00:36:00,,0827.5,4.99,0.00,24.7,23.9,00.0,33.8,26.5,07.0,0002.2,0019.58,0007.18,0005.53
2021-11-19 00:37:00,,0827.5,4.99,0.00,24.7,23.9,00.0,33.8,26.5,07.0,0002.8,0020.50,0007.17,0005.55
2021-11-19 00:38:00,,0827.6,5.01,0.00,24.7,23.9,00.0,33.7,26.6,07.0,0003.5,0019.94,0007.12,0005.55
2021-11-19 00:39:00,,0827.7,5.00,0.00,24.7,23.9,00.0,33.7,26.5,07.0,0004.0,0019.49,0007.10,0005.55
2021-11-19 00:40:00,,0827.7,5.00,0.00,24.7,23.9,00.0,33.7,26.5,07.0,0004.8,0018.87,0007.10,0005.55
2021-11-19 00:41:00,,0827.7,4.99,0.00,24.7,23.9,00.0,33.7,26.5,07.0,0004.9,0019.64,0007.12,0005.57
2021-11-19 00:42:00,,0827.7,5.01,0.00,24.7,23.9,00.0,33.7,26.5,07.0,0005.4,0019.47,0007.14,0005.58
2021-11-19 00:43:00,,0827.7,5.01,0.00,24.7,23.9,00.0,33.7,26.5,07.0,0005.3,0020.10,0007.18,0005.60
2021-11-19 00:44:00,,0827.8,4.99,0.00,24.7,23.9,00.0,33.7,26.5,07.0,0005.5,0020.75,0007.22,0005.61
2021-11-19 00:45:00,,0827.9,5.01,0.00,24.7,23.9,00.0,33.7,26.5,07.0,0005.3,0022.64,0007.27,0005.64
2021-11-19 00:46:00,,0827.9,5.00,0.00,24.6,23.8,00.0,33.7,26.4,07.0,0004.9,0023.79,0007.29,0005.66
2021-11-19 00:47:00,,0827.8,4.99,0.00,24.6,23.7,00.0,33.7,26.3,07.0,0004.6,0025.36,0007.31,0005.69
2021-11-19 00:48:00,,0827.7,5.01,0.00,24.6,23.7,00.0,33.7,26.3,06.9,0005.0,0024.12,0007.27,0005.70
2021-11-19 00:49:00,,0827.7,5.00,0.00,24.5,23.7,00.0,33.7,26.3,06.9,0005.2,0024.28,0007.32,0005.73
2021-11-19 00:50:00,,0827.7,5.00,0.00,24.6,23.7,00.0,33.6,26.3,06.9,0001.0,0024.46,0007.34,0005.74
2021-11-19 00:51:00,,0827.8,5.00,0.00,24.6,23.7,00.0,33.6,26.3,06.9,0000.0,0024.27,0007.40,0005.76
2021-11-19 00:52:00,,0827.8,5.00,0.00,24.6,23.8,00.0,33.6,26.4,06.9,0000.0,0023.60,0007.39,0005.76
2021-11-19 00:53:00,,0827.9,5.01,0.00,24.6,23.8,00.0,33.6,26.4,06.9,0000.0,0024.51,0007.42,0005.77
2021-11-19 00:54:00,,0827.9,4.99,0.00,24.6,23.8,00.0,33.6,26.4,06.9,0000.0,0024.31,0007.41,0005.77
2021-11-19 00:55:00,,0827.9,4.99,0.00,24.6,23.8,00.0,33.6,26.4,06.9,0000.0,0023.27,0007.43,0005.78
2021-11-19 00:56:00,,0827.8,5.02,0.00,24.6,23.8,00.0,33.6,26.4,06.9,0000.0,0022.47,0007.41,0005.78
2021-11-19 00:57:00,,0827.7,4.98,0.00,24.6,23.8,00.0,33.6,26.4,06.9,0000.0,0021.18,0007.35,0005.75
2021-11-19 00:58:00,,0827.7,5.01,0.00,24.6,23.8,00.0,33.6,26.4,06.9,0000.0,0020.07,0007.29,0005.73
2021-11-19 00:59:00,,0827.7,4.99,0.00,24.6,23.8,00.0,33.6,26.5,06.9,0000.0,0020.00,0007.28,0005.69
